Regional Weather Roundup
Issued by NWS

Home | Current Version | Previous Version | Text Only | Print | Product List | Glossary Off
Versions: 1 2 3 4 5 6 7 8 9 10 11 12 13 14 15 16 17 18 19 20 21 22 23 24 25 26 27 28 29 30 31 32 33 34 35 36 37 38 39 40 41 42 43 44 45 46 47 48 49 50

000
ASUS43 KLOT 272206
RWRIL

ILLINOIS REGIONAL WEATHER ROUNDUP
NATIONAL WEATHER SERVICE CHICAGO/ROMEOVILLE IL
400 PM CST THU NOV 27 2014

NOTE: "FAIR" INDICATES FEW OR NO CLOUDS BELOW 12,000 FEET WITH NO
SIGNIFICANT WEATHER AND/OR OBSTRUCTIONS TO VISIBILITY.

* THESE STATIONS ARE NOT UNDER NWS QUALITY CONTROL. THEY ALSO MAY NOT
  REPORT WEATHER SUCH AS PRECIPITATION OR FOG.

ILZ001-002-007-009-015-016-024-272300-
NORTHWEST ILLINOIS

CITY           SKY/WX    TMP DP  RH WIND       PRES   REMARKS
MOLINE         CLEAR     18   1  47 W9        30.45R WCI   7
STERLING*      MOCLDY    21  12  68 NW10      30.41S WCI  10
SAVANNA*       PTCLDY    21   8  57 W7        30.42R WCI  13
$$

ILZ003-004-008-010-011-017-018-272300-
NORTH CENTRAL ILLINOIS

CITY           SKY/WX    TMP DP  RH WIND       PRES   REMARKS
ROCKFORD       FLURRIES  21  10  62 NW7       30.41R WCI  12
FREEPORT*      PTCLDY    19   8  62 NW10      30.41R WCI   7
ROCHELLE*      FLURRIES  21  14  72 NW12      30.40R WCI   9
DE KALB*       FLURRIES  20  13  73 NW13      30.38R WCI   7
PERU*          CLOUDY    23  16  75 W13       30.42R WCI  11
$$

ILZ005-006-012>014-019>023-272300-
NORTHEAST ILLINOIS

CITY           SKY/WX    TMP DP  RH WIND       PRES   REMARKS
CHICAGO-OHARE  CLOUDY    23  14  68 NW8       30.37R WCI  14
CHICAGO-MIDWAY FLURRIES  25  15  66 NW13      30.38R WCI  14
AURORA         LGT SNOW  23  15  71 W16       30.39R WCI  10
LANSING*       CLOUDY    25  15  64 NW5       30.38R WCI  19
JOLIET*        LGT SNOW  24  18  78 W9        30.40R WCI  14
WAUKEGAN       CLOUDY    20  11  68 W7        30.37R WCI  11
DUPAGE AIRPORT CLOUDY    23  15  71 NW10      30.37R WCI  12
KANKAKEE*      CLOUDY   N/A N/A N/A W10       30.39R
WHEELING       CLOUDY    22  12  65 NW13      30.39R WCI  10
MORRIS*        FLURRIES  25  18  74 NW7       30.39R WCI  17
ROMEOVILLE*    FLURRIES  24  17  74 NW12      30.38R WCI  13
NORTHERLY ISL    N/A     25  14  63 W9          N/A  WCI  16
$$

LMZ740>746-272300-
SOUTHERN LAKE MICHIGAN

STATION/POSITION SKY/WX   TEMP    WIND        PRES    VSBY  WAVE
                          AIR SEA DIR/SP/G                  HT/PER
                          (F)     (DEG/KT/KT) (MB)    (MI)  (FT/S)
SOUTHERN BUOY              26 42  320/ 17/ 21 1028.2R
WAUKEGAN HARBOR            21     320/ 12/ 16   N/A
HARRISON CRIB              24     300/ 12/ 15   N/A
BURNHAM HARBOR             25     260/  8/ 14   N/A
CALUMET HARBOR             24     280/ 12/ 17 1027.2R
MICHIGAN CITY              27     280/ 20/ 23   N/A
$$

ILZ025>027-034>036-040-047-049-050-058-095>099-272300-
WEST-CENTRAL ILLINOIS

CITY           SKY/WX    TMP DP  RH WIND       PRES   REMARKS
QUINCY         PTCLDY    23  13  65 NW9       30.47R WCI  13
GALESBURG*     CLEAR     15  10  80 W9        30.45R WCI   3
MACOMB*        PTCLDY    18   6  61 NW12      30.49R WCI   5
JACKSONVILLE*  MOCLDY    25  16  70 W9        30.47R WCI  15
PITTSFIELD*    PTCLDY    27  17  67 NW8       30.48R WCI  18
$$

ILZ028>032-037-038-041>044-048-051>054-059>061-272300-
CENTRAL ILLINOIS

CITY           SKY/WX    TMP DP  RH WIND       PRES   REMARKS
PONTIAC        FLURRIES  26  19  75 W16       30.42R WCI  13
BLOOMINGTON    FLURRIES  23  17  78 W10       30.41R WCI  12
DECATUR        CLOUDY    23  16  74 W14G20    30.44R WCI  11
PEORIA         CLEAR     22  12  65 W8        30.45R WCI  12
LACON*         CLEAR     22  11  62 W15       30.44R WCI   8
LINCOLN*       PTCLDY    24  17  73 W6        30.47R WCI  17
SPRINGFIELD    PTCLDY    23  14  68 NW13      30.46R WCI  11
TAYLORVILLE    PTCLDY    23  16  74 NW10      30.46R WCI  12
$$

ILZ033-039-045-046-055>057-062-063-272300-
EAST-CENTRAL ILLINOIS

CITY           SKY/WX    TMP DP  RH WIND       PRES   REMARKS
CHAMPAIGN      CLOUDY    26  20  77 W15       30.41R WCI  14
DANVILLE*      FLURRIES  27  21  80 NW8       30.36R WCI  18
RANTOUL*       FLURRIES  28  22  79 NW14G20   30.40R WCI  16
MATTOON        CLOUDY    25  19  78 NW20      30.42R WCI  11
PARIS*         LGT SNOW  28  25  89 W14       30.41R WCI  17
$$

ILZ079-100>102-272300-
SOUTHWEST ILLINOIS

CITY           SKY/WX    TMP DP  RH WIND       PRES   REMARKS
ALTON          PTCLDY    30  19  64 NW7       30.46R WCI  23
BELLEVILLE     CLEAR     32  22  66 NW8       30.45S WCI  25
CAHOKIA*       CLEAR     34  21  59 NW9       30.46S WCI  27
SPARTA*        CLEAR     32  22  67 N5        30.46S WCI  27
$$

ILZ064>066-069>071-074>076-080>082-084>086-088>090-092>094-272300-
SOUTH-CENTRAL ILLINOIS

CITY           SKY/WX    TMP DP  RH WIND       PRES   REMARKS
CARBONDALE     MOCLDY    33  25  72 CALM      30.47R
CAIRO*         CLEAR     38  27  64 CALM      30.46S
EFFINGHAM*     CLOUDY    28  16  61 NW13      30.44S WCI  17
MARION         PTCLDY    34  25  69 NW12      30.47S WCI  25
MT. VERNON     MOCLDY    30  19  64 CALM      30.46R
CENTRALIA*     PTCLDY    29  22  73 NW7       30.46R WCI  22
SALEM*           N/A     31  20  65 NW10      30.46R WCI  22
METROPOLIS*    CLOUDY    35  27  73 NW3         N/A
$$

ILZ067-068-072-073-078-083-087-091-272300-
SOUTHEAST ILLINOIS

CITY           SKY/WX    TMP DP  RH WIND       PRES   REMARKS
LAWRENCEVILLE  CLOUDY    29  22  75 W13       30.45R WCI  19
FLORA*         PTCLDY    29  22  76 NW7       30.46R WCI  22
FAIRFIELD*     CLOUDY    31  23  73 W3        30.45R
HARRISBURG*    CLOUDY    32  25  76 NW8       30.48R WCI  25
ROBINSON*      CLOUDY    30  23  76 W15       30.44S WCI  19
CARMI*         CLOUDY    32  27  81 W8        30.46R WCI  25
$$

ABBREVIATIONS USED IN REMARKS
   TC - TEMPERATURE IN CELSIUS
  WCI - WIND CHILL INDEX
   HX - HEAT INDEX
  VSB - VISIBILITY
$$




USA.gov is the U.S. government's official web portal to all federal, state and local government web resources and services.